Find Starlink 34736

NORAD ID: 64846 Int'l Des: 2025-152 Owner: SPXS Country: US Constellation: starlink operational
LEOCIRCULARRETROGRADESSO

当前视图

正在加载3D地球...

About Starlink 34736

Starlink 34736 (NORAD 64846) is a starlink constellation satellite (v2 mini) launched Jul 19, 2025 by SPXS of US. It operates in LEO, CIRCULAR, RETROGRADE, SSO orbit with a mass of 575.00 kg.

关于 Starlink 34736

正在加载描述...

即将过境

Passes for default location (London). Set your location on the main map for personalized predictions.

高度历史

Loading altitude history...

两行轨道根数

1 64846U 25152E 26176.18344814 .00013757 00000-0 95543-3 0 9990
2 64846 97.3147 30.2026 0002485 94.4956 265.6556 15.05653004 51594
Epoch: Jun 25, 2026 • Age: 10 hours

当前状态

高度 554.7 km
速度 7.58 km/s
星下点 -9.58°S, 90.86°W
发射日期 Jul 19, 2025
运行时间 0.9 years
类型 internet

技术详情

分类 Payload
质量 575.00 kg
干质量 530.00 kg
总质量 575.00 kg
长度 0.30 m
直径 4.10 m
跨度 29.00 m
形状 Box + pan
制造商 SPXS
平台类型 Starlink V2MO
阶段状态 In Orbit
所有者/国家 SPXS/US

Most Searched